{"data":{"norad_id":66886,"epoch":"2026-05-24T23:00:08.186976Z","epoch_age_seconds":79419,"freshness":"FRESH","line1":"1 66886U 25283J   26144.95842809  .00016540  00000+0  49967-3 0  9999","line2":"2 66886  53.1604  29.7402 0001164  81.0062 279.1072 15.34394874 27520","mean_motion":15.34394874,"eccentricity":0.0001164,"inclination_deg":53.1604,"raan_deg":29.7402,"arg_perigee_deg":81.0062,"mean_anomaly_deg":279.1072,"bstar":0.00049967,"rev_number":2752,"period_min":93.848071601418,"perigee_km":461.92220022439,"apogee_km":463.51475137916,"semimajor_km":6840.8554758018,"source":"CELESTRAK","updated_at":"2026-05-25T13:38:21.379581Z"}}